Volver al catálogo

STARLINK-37866

ActivoComunicacionesSSO
NORAD 69430·PAYLOAD·🇺🇸 United States

Lanzado Jun 7, 2026 desde Vandenberg Space Force Base

Loading…

Próximos Pases (próximas 24 horas)

TLE

ActualizadoSource: CelesTrak SupGP

Época: Sep 14, 2026, 23:20 UTC

1 69430C 26126L   26257.97270833  .00079212  00000+0  24596-2 0  2575
2 69430  97.2844 119.3308 0001914  94.3603 141.3770 15.33389401    14

Sigue STARLINK-37866 en tiempo real con AllMySat

Download on the App Store